| time (UTC) | temp F | wind direction | speed MPH | gust MPH | rain 1hr in | rain 24hr in | rain mn in | humidity % | barometer mb |
| 20260906180132 | 87 | 261 | 2.0 | 2.0 | 0.00 | 0.00 | 0.01 | 70 | 1015.2 |
| 20260906175132 | 86 | 203 | 2.0 | 2.0 | 0.00 | 0.00 | 0.01 | 70 | 1015.2 |
| 20260906174632 | 86 | 200 | 2.0 | 2.0 | 0.00 | 0.00 | 0.01 | 72 | 1015.6 |
| 20260906173632 | 85 | 208 | 2.0 | 2.0 | 0.00 | 0.00 | 0.01 | 73 | 1015.6 |
| 20260906172632 | 85 | 214 | 2.0 | 2.0 | 0.00 | 0.00 | 0.01 | 73 | 1015.6 |
| 20260906172132 | 85 | 199 | 2.0 | 2.0 | 0.00 | 0.00 | 0.01 | 74 | 1015.9 |
| 20260906171132 | 85 | 204 | 2.0 | 2.0 | 0.00 | 0.00 | 0.01 | 73 | 1015.9 |
| 20260906170632 | 85 | 214 | 2.0 | 2.0 | 0.00 | 0.00 | 0.01 | 73 | 1015.9 |
| 20260906165632 | 84 | 231 | 2.0 | 2.0 | 0.00 | 0.00 | 0.01 | 75 | 1015.9 |
| 20260906163132 | 82 | 276 | 1.0 | 1.0 | 0.00 | 0.00 | 0.01 | 79 | 1016.3 |
| 20260906162632 | 82 | 289 | 1.0 | 1.0 | 0.00 | 0.00 | 0.01 | 81 | 1016.3 |
| 20260906162132 | 82 | 308 | 1.0 | 1.0 | 0.00 | 0.00 | 0.01 | 83 | 1016.3 |
| 20260906161132 | 81 | 281 | 1.0 | 1.0 | 0.00 | 0.00 | 0.01 | 83 | 1016.3 |
| 20260906160132 | 81 | 316 | 2.0 | 2.0 | 0.01 | 0.00 | 0.01 | 85 | 1016.6 |
| 20260906155132 | 80 | 316 | 1.0 | 1.0 | 0.01 | 0.00 | 0.01 | 86 | 1016.6 |
| 20260906153632 | 80 | 315 | 1.0 | 1.0 | 0.01 | 0.00 | 0.01 | 86 | 1016.6 |
| 20260906153132 | 80 | 315 | 1.0 | 1.0 | 0.01 | 0.00 | 0.01 | 86 | 1016.9 |
| 20260906152632 | 80 | 315 | 1.0 | 1.0 | 0.01 | 0.00 | 0.01 | 86 | 1016.6 |
| 20260906151632 | 81 | 315 | 2.0 | 2.0 | 0.01 | 0.00 | 0.01 | 85 | 1015.9 |
| 20260906151132 | 81 | 315 | 2.0 | 2.0 | 0.01 | 0.00 | 0.01 | 84 | 1015.9 |
| 20260906150632 | 81 | 314 | 2.0 | 2.0 | 0.01 | 0.00 | 0.00 | 82 | 1015.9 |
| 20260906145632 | 81 | 306 | 2.0 | 2.0 | 0.00 | 0.00 | 0.00 | 82 | 1015.9 |
| 20260906144632 | 81 | 282 | 2.0 | 2.0 | 0.00 | 0.00 | 0.00 | 82 | 1015.6 |
| 20260906143132 | 81 | 168 | 2.0 | 2.0 | 0.00 | 0.00 | 0.00 | 83 | 1015.9 |
| 20260906142632 | 80 | 211 | 2.0 | 2.0 | 0.00 | 0.00 | 0.00 | 83 | 1015.9 |
| 20260906135632 | 80 | 254 | 2.0 | 2.0 | 0.00 | 0.00 | 0.00 | 84 | 1015.9 |
| 20260906134632 | 79 | 289 | 2.0 | 2.0 | 0.00 | 0.00 | 0.00 | 85 | 1016.3 |
| 20260906134132 | 79 | 245 | 2.0 | 2.0 | 0.00 | 0.00 | 0.00 | 85 | 1015.9 |
| 20260906133132 | 79 | 297 | 1.0 | 1.0 | 0.00 | 0.00 | 0.00 | 86 | 1015.9 |
| 20260906132132 | 78 | 285 | 1.0 | 1.0 | 0.00 | 0.00 | 0.00 | 88 | 1015.9 |
| 20260906131132 | 77 | 304 | 1.0 | 1.0 | 0.00 | 0.00 | 0.00 | 89 | 1015.9 |
| 20260906130132 | 76 | 268 | 1.0 | 1.0 | 0.00 | 0.00 | 0.00 | 90 | 1015.9 |
| 20260906125132 | 76 | 273 | 1.0 | 1.0 | 0.00 | 0.00 | 0.00 | 91 | 1015.6 |
| 20260906124132 | 75 | 338 | 1.0 | 1.0 | 0.00 | 0.00 | 0.00 | 92 | 1015.6 |
| 20260906123132 | 75 | 318 | 1.0 | 1.0 | 0.00 | 0.00 | 0.00 | 92 | 1015.2 |
| 20260906122132 | 75 | 306 | 1.0 | 1.0 | 0.00 | 0.00 | 0.00 | 92 | 1015.2 |
| 20260906121132 | 75 | 325 | 1.0 | 1.0 | 0.00 | 0.00 | 0.00 | 92 | 1015.2 |
| 20260906115132 | 75 | 327 | 1.0 | 1.0 | 0.00 | 0.00 | 0.00 | 92 | 1014.9 |
| 20260906114632 | 75 | 319 | 1.0 | 1.0 | 0.00 | 0.00 | 0.00 | 92 | 1014.9 |
| 20260906111632 | 75 | 307 | 0.0 | 0.0 | 0.00 | 0.00 | 0.00 | 92 | 1014.9 |
| 20260906110132 | 75 | 322 | 0.0 | 0.0 | 0.00 | 0.00 | 0.00 | 91 | 1015.2 |
| 20260906105132 | 75 | 328 | 0.0 | 0.0 | 0.00 | 0.00 | 0.00 | 91 | 1014.9 |
| 20260906104132 | 75 | 315 | 1.0 | 1.0 | 0.00 | 0.00 | 0.00 | 91 | 1014.9 |
| 20260906103132 | 75 | 279 | 1.0 | 1.0 | 0.00 | 0.00 | 0.00 | 91 | 1014.6 |
| 20260906102132 | 75 | 267 | 1.0 | 1.0 | 0.00 | 0.00 | 0.00 | 91 | 1014.6 |
| 20260906100632 | 75 | 328 | 1.0 | 1.0 | 0.00 | 0.00 | 0.00 | 91 | 1014.6 |
| 20260906100132 | 75 | 321 | 1.0 | 1.0 | 0.00 | 0.00 | 0.00 | 91 | 1014.6 |
| 20260906095632 | 75 | 316 | 1.0 | 1.0 | 0.00 | 0.00 | 0.00 | 91 | 1014.6 |
| 20260906093632 | 75 | 324 | 0.0 | 0.0 | 0.00 | 0.00 | 0.00 | 91 | 1014.6 |
| 20260906092632 | 75 | 289 | 0.0 | 0.0 | 0.00 | 0.00 | 0.00 | 91 | 1014.6 |
| 20260906091132 | 75 | 0 | 0.0 | 0.0 | 0.00 | 0.00 | 0.00 | 90 | 1014.6 |
| 20260906090632 | 75 | 241 | 0.0 | 0.0 | 0.00 | 0.00 | 0.00 | 90 | 1014.6 |
| 20260906085632 | 75 | 331 | 0.0 | 0.0 | 0.00 | 0.00 | 0.00 | 89 | 1014.9 |
| 20260906084632 | 76 | 328 | 1.0 | 1.0 | 0.00 | 0.00 | 0.00 | 88 | 1014.6 |
| 20260906084132 | 76 | 312 | 1.0 | 1.0 | 0.00 | 0.00 | 0.00 | 88 | 1014.6 |
| 20260906083132 | 76 | 264 | 1.0 | 1.0 | 0.00 | 0.00 | 0.00 | 87 | 1014.6 |
| 20260906082632 | 77 | 329 | 1.0 | 1.0 | 0.00 | 0.00 | 0.00 | 87 | 1014.6 |
| 20260906082132 | 77 | 317 | 1.0 | 1.0 | 0.00 | 0.00 | 0.00 | 86 | 1014.6 |
| 20260906081132 | 77 | 291 | 1.0 | 1.0 | 0.00 | 0.00 | 0.00 | 86 | 1014.6 |
| 20260906080632 | 77 | 280 | 1.0 | 1.0 | 0.00 | 0.00 | 0.00 | 85 | 1014.6 |
| 20260906075632 | 78 | 262 | 1.0 | 1.0 | 0.00 | 0.00 | 0.00 | 85 | 1014.2 |
| 20260906074632 | 78 | 272 | 1.0 | 1.0 | 0.00 | 0.00 | 0.00 | 84 | 1014.6 |
| 20260906073632 | 78 | 299 | 1.0 | 1.0 | 0.00 | 0.00 | 0.00 | 84 | 1014.6 |
| 20260906072132 | 78 | 274 | 1.0 | 1.0 | 0.00 | 0.00 | 0.00 | 83 | 1014.6 |
| 20260906071132 | 79 | 279 | 1.0 | 1.0 | 0.00 | 0.00 | 0.00 | 83 | 1014.6 |
| 20260906070632 | 79 | 277 | 1.0 | 1.0 | 0.00 | 0.00 | 0.00 | 82 | 1014.6 |
| 20260906065632 | 79 | 267 | 1.0 | 1.0 | 0.00 | 0.00 | 0.00 | 83 | 1014.6 |
| 20260906064632 | 79 | 289 | 1.0 | 1.0 | 0.00 | 0.00 | 0.00 | 82 | 1014.6 |
| 20260906063632 | 79 | 261 | 1.0 | 1.0 | 0.00 | 0.00 | 0.00 | 83 | 1014.6 |
| 20260906062632 | 79 | 295 | 1.0 | 1.0 | 0.00 | 0.00 | 0.00 | 84 | 1014.9 |
| 20260906061632 | 79 | 288 | 1.0 | 1.0 | 0.00 | 0.00 | 0.00 | 83 | 1014.9 |
| 20260906060632 | 79 | 287 | 1.0 | 1.0 | 0.00 | 0.00 | 0.00 | 83 | 1014.6 |
| 20260906060132 | 79 | 268 | 1.0 | 1.0 | 0.00 | 0.00 | 0.00 | 83 | 1014.9 |
| 20260906055132 | 79 | 280 | 1.0 | 1.0 | 0.00 | 0.00 | 0.00 | 83 | 1014.9 |
| 20260906053632 | 79 | 314 | 1.0 | 1.0 | 0.00 | 0.00 | 0.00 | 83 | 1014.6 |
| 20260906053132 | 79 | 316 | 1.0 | 1.0 | 0.00 | 0.00 | 0.00 | 83 | 1014.9 |
| 20260906052132 | 80 | 316 | 1.0 | 1.0 | 0.00 | 0.00 | 0.00 | 82 | 1014.9 |
| 20260906051132 | 80 | 316 | 1.0 | 1.0 | 0.00 | 0.00 | 0.00 | 81 | 1014.9 |
| 20260906050632 | 80 | 316 | 1.0 | 1.0 | 0.00 | 0.00 | 0.00 | 81 | 1014.9 |
| 20260906045132 | 81 | 316 | 1.0 | 1.0 | 0.00 | 0.00 | 0.00 | 81 | 1014.9 |
| 20260906044132 | 81 | 315 | 1.0 | 1.0 | 0.00 | 0.00 | 0.00 | 80 | 1014.6 |
| 20260906043132 | 81 | 316 | 1.0 | 1.0 | 0.00 | 0.00 | 0.00 | 80 | 1014.9 |
| 20260906041632 | 82 | 240 | 1.0 | 1.0 | 0.00 | 0.00 | 0.00 | 79 | 1014.9 |
| 20260906040632 | 82 | 252 | 1.0 | 1.0 | 0.00 | 0.00 | 0.00 | 79 | 1014.9 |
| 20260906035132 | 83 | 258 | 1.0 | 1.0 | 0.00 | 0.00 | 0.00 | 78 | 1014.6 |
| 20260906034132 | 83 | 261 | 1.0 | 1.0 | 0.00 | 0.00 | 0.00 | 77 | 1014.6 |
| 20260906033632 | 83 | 240 | 1.0 | 1.0 | 0.00 | 0.00 | 0.00 | 77 | 1014.6 |
| 20260906033132 | 83 | 289 | 2.0 | 2.0 | 0.00 | 0.00 | 0.00 | 76 | 1014.6 |
| 20260906031632 | 84 | 211 | 2.0 | 2.0 | 0.00 | 0.00 | 0.00 | 76 | 1014.6 |
| 20260906031132 | 84 | 212 | 2.0 | 2.0 | 0.00 | 0.00 | 0.00 | 76 | 1014.2 |
| 20260906030132 | 84 | 217 | 1.0 | 1.0 | 0.00 | 0.00 | 0.00 | 76 | 1013.9 |
| 20260906024132 | 84 | 192 | 1.0 | 1.0 | 0.00 | 0.00 | 0.00 | 76 | 1013.5 |
| 20260906023632 | 84 | 212 | 1.0 | 1.0 | 0.00 | 0.00 | 0.00 | 76 | 1013.5 |
| 20260906022632 | 85 | 179 | 1.0 | 1.0 | 0.00 | 0.00 | 0.00 | 75 | 1013.5 |
| 20260906020632 | 85 | 172 | 1.0 | 1.0 | 0.00 | 0.00 | 0.00 | 74 | 1013.2 |
| 20260906015632 | 85 | 153 | 1.0 | 1.0 | 0.00 | 0.00 | 0.00 | 74 | 1013.2 |
| 20260906014632 | 86 | 143 | 1.0 | 1.0 | 0.00 | 0.00 | 0.00 | 74 | 1013.2 |
| 20260906014132 | 86 | 158 | 1.0 | 1.0 | 0.00 | 0.00 | 0.00 | 74 | 1012.9 |
| 20260906013632 | 86 | 148 | 1.0 | 1.0 | 0.00 | 0.00 | 0.00 | 74 | 1012.9 |
| 20260906012632 | 86 | 181 | 1.0 | 1.0 | 0.00 | 0.00 | 0.00 | 74 | 1012.9 |
| 20260906011632 | 87 | 213 | 1.0 | 1.0 | 0.00 | 0.00 | 0.00 | 74 | 1012.9 |
| 20260906011132 | 87 | 210 | 1.0 | 1.0 | 0.00 | 0.00 | 0.00 | 73 | 1012.9 |
| 20260906010132 | 87 | 215 | 1.0 | 1.0 | 0.00 | 0.00 | 0.00 | 72 | 1012.9 |
| 20260906004632 | 88 | 229 | 1.0 | 1.0 | 0.00 | 0.00 | 0.00 | 71 | 1012.5 |
| 20260906003632 | 89 | 318 | 1.0 | 1.0 | 0.00 | 0.00 | 0.00 | 69 | 1012.5 |
| 20260906003132 | 89 | 315 | 1.0 | 1.0 | 0.00 | 0.00 | 0.00 | 69 | 1012.5 |
| 20260906002632 | 90 | 315 | 1.0 | 1.0 | 0.00 | 0.00 | 0.00 | 68 | 1012.5 |
| 20260906001632 | 91 | 121 | 1.0 | 1.0 | 0.00 | 0.00 | 0.00 | 65 | 1012.5 |
| 20260906000632 | 91 | 261 | 1.0 | 1.0 | 0.00 | 0.00 | 0.00 | 65 | 1012.5 |
| 20260906000132 | 91 | 276 | 1.0 | 1.0 | 0.00 | 0.00 | 0.00 | 65 | 1012.5 |
| 20260905234632 | 91 | 246 | 2.0 | 2.0 | 0.00 | 0.00 | 0.00 | 64 | 1012.5 |
| 20260905233632 | 91 | 243 | 1.0 | 1.0 | 0.00 | 0.00 | 0.00 | 64 | 1012.5 |
| 20260905232632 | 91 | 267 | 1.0 | 1.0 | 0.00 | 0.00 | 0.00 | 64 | 1012.5 |
| 20260905232132 | 91 | 248 | 1.0 | 1.0 | 0.00 | 0.00 | 0.00 | 64 | 1012.5 |
| 20260905231132 | 92 | 289 | 1.0 | 1.0 | 0.00 | 0.00 | 0.00 | 63 | 1012.5 |
| 20260905230132 | 92 | 242 | 2.0 | 2.0 | 0.00 | 0.00 | 0.00 | 62 | 1012.2 |
| 20260905225632 | 92 | 266 | 2.0 | 2.0 | 0.00 | 0.00 | 0.00 | 61 | 1012.2 |
| 20260905224632 | 93 | 220 | 2.0 | 2.0 | 0.00 | 0.00 | 0.00 | 61 | 1012.2 |
| 20260905224132 | 93 | 211 | 2.0 | 2.0 | 0.00 | 0.00 | 0.00 | 60 | 1012.2 |
| 20260905223132 | 92 | 223 | 2.0 | 2.0 | 0.00 | 0.00 | 0.00 | 61 | 1012.2 |
| 20260905221132 | 92 | 238 | 2.0 | 2.0 | 0.00 | 0.00 | 0.00 | 60 | 1011.9 |
| 20260905220632 | 92 | 225 | 2.0 | 2.0 | 0.00 | 0.00 | 0.00 | 60 | 1011.9 |
| 20260905215632 | 92 | 242 | 2.0 | 2.0 | 0.00 | 0.00 | 0.00 | 59 | 1012.2 |
| 20260905214632 | 92 | 228 | 2.0 | 2.0 | 0.00 | 0.00 | 0.00 | 59 | 1012.2 |
| 20260905212632 | 92 | 262 | 2.0 | 2.0 | 0.00 | 0.00 | 0.00 | 57 | 1012.9 |
| 20260905211632 | 92 | 230 | 2.0 | 2.0 | 0.00 | 0.00 | 0.00 | 58 | 1012.9 |
| 20260905211132 | 92 | 232 | 2.0 | 2.0 | 0.00 | 0.00 | 0.00 | 56 | 1012.9 |
| 20260905210632 | 92 | 219 | 2.0 | 2.0 | 0.00 | 0.00 | 0.00 | 57 | 1012.9 |
| 20260905205632 | 92 | 236 | 2.0 | 2.0 | 0.00 | 0.00 | 0.00 | 58 | 1013.2 |
| 20260905205132 | 92 | 238 | 2.0 | 2.0 | 0.00 | 0.00 | 0.00 | 56 | 1013.2 |
| 20260905204632 | 92 | 291 | 2.0 | 2.0 | 0.00 | 0.00 | 0.00 | 57 | 1013.2 |
| 20260905202632 | 91 | 320 | 2.0 | 2.0 | 0.00 | 0.00 | 0.00 | 58 | 1013.5 |
| 20260905202132 | 91 | 8 | 2.0 | 2.0 | 0.00 | 0.00 | 0.00 | 60 | 1013.9 |
| 20260905201132 | 91 | 241 | 2.0 | 2.0 | 0.00 | 0.00 | 0.00 | 59 | 1014.6 |
| 20260905200632 | 92 | 325 | 2.0 | 2.0 | 0.00 | 0.00 | 0.00 | 58 | 1014.6 |
| 20260905200132 | 91 | 11 | 2.0 | 2.0 | 0.00 | 0.00 | 0.00 | 58 | 1014.6 |
| 20260905195132 | 91 | 276 | 2.0 | 2.0 | 0.00 | 0.00 | 0.00 | 61 | 1014.6 |
| 20260905194632 | 91 | 229 | 2.0 | 2.0 | 0.00 | 0.00 | 0.00 | 61 | 1014.6 |
| 20260905193632 | 90 | 321 | 2.0 | 2.0 | 0.00 | 0.00 | 0.00 | 61 | 1014.6 |
| 20260905192632 | 90 | 11 | 3.0 | 3.0 | 0.00 | 0.00 | 0.00 | 63 | 1014.6 |
| 20260905191632 | 90 | 257 | 3.0 | 3.0 | 0.00 | 0.00 | 0.00 | 64 | 1014.9 |
| 20260905190632 | 88 | 27 | 3.0 | 3.0 | 0.00 | 0.00 | 0.00 | 65 | 1015.2 |
| 20260905185632 | 88 | 49 | 4.0 | 4.0 | 0.00 | 0.00 | 0.00 | 64 | 1015.6 |
| 20260905184632 | 88 | 26 | 3.0 | 3.0 | 0.00 | 0.00 | 0.00 | 66 | 1015.6 |
| 20260905183632 | 87 | 36 | 3.0 | 3.0 | 0.00 | 0.00 | 0.00 | 66 | 1015.9 |
| 20260905181632 | 87 | 53 | 4.0 | 4.0 | 0.00 | 0.00 | 0.00 | 68 | 1015.9 |
| 20260905181132 | 87 | 60 | 4.0 | 4.0 | 0.00 | 0.00 | 0.00 | 67 | 1015.9 |